This demonstration page uses our WeatherBlox Daily Observations layout. Learn more.

Left ArrowRight Arrow

36.19886, -115.1175

Hourly Observations for February 2, 2017

Temp ( °F °C ) Dew Point ( °F °C ) Humidity (%) Winds ( mph kmh ) Pressure ( in mb ) Visibility ( mi km ) Precip ( " mm )
12:53 am 00:53 Clear 50 10 32 0 50 50 Calm 30.09 1019 10 16 0.00 0.00
1:53 am 01:53 Clear 48 8.9 33 0.6 56 56 Calm 30.09 1019 10 16 0.00 0.00
2:53 am 02:53 Clear 50 10 32 0 50 50 Calm 30.08 1019 10 16 0.00 0.00
3:53 am 03:53 Clear 48 8.9 33 0.6 56 56 Calm 30.08 1019 10 16 0.00 0.00
4:53 am 04:53 Clear 46 7.8 34 1.1 63 63 NW 3 6 30.09 1019 10 16 0.00 0.00
5:53 am 05:53 Clear 46 7.8 34 1.1 63 63 Calm 30.11 1020 10 16 0.00 0.00
6:53 am 06:53 Sunny 45 7.2 34 1.1 66 66 NNE 5 7 30.12 1020 10 16 0.00 0.00
7:53 am 07:53 Sunny 47 8.3 34 1.1 61 61 WNW 3 6 30.14 1021 10 16 0.00 0.00
8:53 am 08:53 Sunny 53 11.7 33 0.6 47 47 Calm 30.14 1021 10 16 0.00 0.00
9:53 am 09:53 Sunny 55 12.8 32 0 42 42 Calm 30.15 1021 10 16 0.00 0.00
10:53 am 10:53 Sunny 58 14.4 30 -1.1 35 35 Calm 30.14 1021 10 16 0.00 0.00
11:53 am 11:53 Sunny 60 15.6 31 -0.6 33 33 VRB 5 7 30.11 1020 10 16 0.00 0.00
12:53 pm 12:53 Sunny 61 16.1 30 -1.1 31 31 ESE 8 13 30.07 1018 10 16 0.00 0.00
1:53 pm 13:53 Sunny 64 17.8 30 -1.1 28 28 E 9 15 30.05 1018 10 16 0.00 0.00
2:53 pm 14:53 Sunny 66 18.9 28 -2.2 24 24 ENE 10 17 30.04 1017 10 16 0.00 0.00
3:53 pm 15:53 Sunny 65 18.3 28 -2.2 25 25 E 12 19 30.04 1017 10 16 0.00 0.00
4:53 pm 16:53 Sunny 63 17.2 27 -2.8 26 26 E 9 15 30.05 1018 10 16 0.00 0.00
5:53 pm 17:53 Clear 60 15.6 30 -1.1 32 32 E 14 22 30.07 1018 10 16 0.00 0.00
6:53 pm 18:53 Clear 59 15 29 -1.7 32 32 ENE 10 17 30.08 1019 10 16 0.00 0.00
7:53 pm 19:53 Clear 58 14.4 29 -1.7 33 33 ENE 5 7 30.10 1019 10 16 0.00 0.00
8:53 pm 20:53 Clear 56 13.3 30 -1.1 37 37 Calm 30.10 1019 10 16 0.00 0.00
9:53 pm 21:53 Clear 54 12.2 31 -0.6 42 42 Calm 30.10 1019 10 16 0.00 0.00
10:53 pm 22:53 Clear 54 12.2 32 0 43 43 E 3 6 30.10 1019 10 16 0.00 0.00
11:53 pm 23:53 Clear 53 11.7 32 0 45 45 Calm 30.09 1019 10 16 0.00 0.00

Powered by AerisWeather